Location: North Evanston
(42.0634°N, 87.6976°W)
Time: 12:06:43
(UTC+00:00)

Vanguard 3 - Pass Details

Date: 18 May 2026
Orbit: 507 x 3204 km, 33.3° (Epoch: 11 June)

Event Time Altitude Azimuth Distance (km) Brightness Sun altitude
Rises 16:37:37 0° 209° (SSW) 5,657 11.6 63.2°
Reaches altitude 10° 16:41:25 10° 201° (SSW) 4,997 11.5 63.6°
Maximum altitude 16:54:45 35° 142° (SE) 4,128 12.0 65.0°
Drops below altitude 10° 17:11:00 10° 87° (E) 6,106 11.8 66.3°
Sets 17:16:13 0° 80° (E) 7,022 12.0 66.7°
